Time,TemperatureF,DewpointF,PressureIn,WindDirection,WindDirectionDegrees,WindSpeedMPH,WindSpeedGustMPH,Humidity,HourlyPrecipIn,Conditions,Clouds,dailyrainin,SoftwareType,DateUTC
2013-05-18 00:00:00,60.5,59.7,29.97,North,0,0.0,0.0,97,0.00,,,0.00,VWS V14.01,2013-05-18 04:00:00,
2013-05-18 00:05:00,60.5,59.7,29.97,North,0,0.0,0.0,97,0.00,,,0.00,VWS V14.01,2013-05-18 04:05:00,
2013-05-18 00:10:00,60.7,59.8,29.97,North,0,0.0,0.0,97,0.00,,,0.00,VWS V14.01,2013-05-18 04:10:00,
2013-05-18 00:15:00,60.7,59.8,29.95,North,0,0.0,0.0,97,0.00,,,0.00,VWS V14.01,2013-05-18 04:15:00,
2013-05-18 00:20:00,60.7,59.6,29.95,North,0,0.0,1.0,96,0.00,,,0.00,VWS V14.01,2013-05-18 04:20:00,
2013-05-18 00:25:00,60.7,59.6,29.95,North,0,0.0,0.0,96,0.00,,,0.00,VWS V14.01,2013-05-18 04:25:00,
2013-05-18 00:30:00,60.5,59.4,29.95,North,0,0.0,0.0,96,0.00,,,0.00,VWS V14.01,2013-05-18 04:30:00,
2013-05-18 00:35:00,60.5,59.4,29.95,North,0,0.0,0.0,96,0.00,,,0.00,VWS V14.01,2013-05-18 04:35:00,
2013-05-18 00:40:00,60.5,59.4,29.95,North,0,0.0,0.0,96,0.00,,,0.00,VWS V14.01,2013-05-18 04:40:00,
2013-05-18 00:45:00,60.5,59.4,29.95,North,0,0.0,0.0,96,0.00,,,0.00,VWS V14.01,2013-05-18 04:45:00,
2013-05-18 00:50:00,60.5,59.4,29.95,North,0,0.0,0.0,96,0.00,,,0.00,VWS V14.01,2013-05-18 04:50:00,
2013-05-18 00:55:00,60.4,59.3,29.95,North,0,0.0,0.0,96,0.00,,,0.00,VWS V14.01,2013-05-18 04:55:00,
2013-05-18 01:00:00,60.4,59.3,29.95,North,0,0.0,0.0,96,0.00,,,0.00,VWS V14.01,2013-05-18 05:00:00,
2013-05-18 01:05:00,60.2,59.1,29.95,North,0,0.0,0.0,96,0.00,,,0.00,VWS V14.01,2013-05-18 05:05:00,
2013-05-18 01:10:00,60.2,59.1,29.95,North,0,0.0,0.0,96,0.00,,,0.00,VWS V14.01,2013-05-18 05:10:00,
2013-05-18 01:15:00,60.1,59.0,29.94,North,0,0.0,2.0,96,0.00,,,0.00,VWS V14.01,2013-05-18 05:15:00,
2013-05-18 01:20:00,60.1,59.0,29.94,North,0,0.0,0.0,96,0.00,,,0.00,VWS V14.01,2013-05-18 05:20:00,
2013-05-18 01:25:00,60.1,59.0,29.94,North,0,0.0,0.0,96,0.00,,,0.00,VWS V14.01,2013-05-18 05:25:00,
2013-05-18 01:30:00,59.9,58.8,29.94,North,0,0.0,0.0,96,0.00,,,0.00,VWS V14.01,2013-05-18 05:30:00,
2013-05-18 01:35:00,59.9,58.8,29.94,North,0,0.0,0.0,96,0.00,,,0.00,VWS V14.01,2013-05-18 05:35:00,
2013-05-18 01:40:00,59.8,58.7,29.94,North,0,0.0,0.0,96,0.00,,,0.00,VWS V14.01,2013-05-18 05:40:00,
2013-05-18 01:45:00,59.8,58.7,29.94,North,0,0.0,0.0,96,0.00,,,0.00,VWS V14.01,2013-05-18 05:45:00,
2013-05-18 01:50:00,59.6,58.5,29.94,North,0,0.0,0.0,96,0.00,,,0.00,VWS V14.01,2013-05-18 05:50:00,
2013-05-18 01:55:00,59.6,58.5,29.94,North,0,0.0,0.0,96,0.00,,,0.00,VWS V14.01,2013-05-18 05:55:00,
2013-05-18 02:00:00,59.6,58.8,29.94,North,0,0.0,0.0,97,0.00,,,0.00,VWS V14.01,2013-05-18 06:00:00,
2013-05-18 02:05:00,59.6,58.5,29.94,North,0,0.0,0.0,96,0.00,,,0.00,VWS V14.01,2013-05-18 06:05:00,
2013-05-18 02:10:00,59.6,58.8,29.94,North,0,0.0,0.0,97,0.00,,,0.00,VWS V14.01,2013-05-18 06:10:00,
2013-05-18 02:15:00,59.6,58.5,29.94,North,0,0.0,0.0,96,0.00,,,0.00,VWS V14.01,2013-05-18 06:15:00,
2013-05-18 02:20:00,59.8,58.7,29.94,North,0,0.0,0.0,96,0.00,,,0.00,VWS V14.01,2013-05-18 06:20:00,
2013-05-18 02:25:00,59.8,59.0,29.94,North,0,0.0,0.0,97,0.00,,,0.00,VWS V14.01,2013-05-18 06:25:00,
2013-05-18 02:30:00,59.8,58.7,29.94,North,0,0.0,0.0,96,0.00,,,0.00,VWS V14.01,2013-05-18 06:30:00,
2013-05-18 02:35:00,59.8,59.0,29.94,North,0,0.0,0.0,97,0.00,,,0.00,VWS V14.01,2013-05-18 06:35:00,
2013-05-18 02:40:00,59.8,59.0,29.94,North,0,0.0,0.0,97,0.00,,,0.00,VWS V14.01,2013-05-18 06:40:00,
2013-05-18 02:45:00,59.9,59.0,29.94,North,0,0.0,0.0,97,0.00,,,0.00,VWS V14.01,2013-05-18 06:45:00,
2013-05-18 02:50:00,59.9,59.0,29.94,North,0,0.0,0.0,97,0.00,,,0.00,VWS V14.01,2013-05-18 06:50:00,
2013-05-18 02:55:00,59.9,58.8,29.94,North,0,0.0,0.0,96,0.00,,,0.00,VWS V14.01,2013-05-18 06:55:00,
2013-05-18 03:00:00,59.8,59.0,29.93,North,0,0.0,0.0,97,0.00,,,0.00,VWS V14.01,2013-05-18 07:00:00,
2013-05-18 03:05:00,59.8,58.7,29.93,North,0,0.0,0.0,96,0.00,,,0.00,VWS V14.01,2013-05-18 07:05:00,
2013-05-18 03:10:00,59.6,58.5,29.93,North,0,0.0,0.0,96,0.00,,,0.00,VWS V14.01,2013-05-18 07:10:00,
2013-05-18 03:15:00,59.6,58.5,29.92,North,0,0.0,0.0,96,0.00,,,0.00,VWS V14.01,2013-05-18 07:15:00,
2013-05-18 03:20:00,59.6,58.5,29.92,North,0,0.0,0.0,96,0.00,,,0.00,VWS V14.01,2013-05-18 07:20:00,
2013-05-18 03:25:00,59.5,58.4,29.92,North,0,0.0,0.0,96,0.00,,,0.00,VWS V14.01,2013-05-18 07:25:00,
2013-05-18 03:30:00,59.5,58.4,29.92,North,0,0.0,0.0,96,0.00,,,0.00,VWS V14.01,2013-05-18 07:30:00,
2013-05-18 03:35:00,59.3,58.2,29.92,North,0,0.0,0.0,96,0.00,,,0.00,VWS V14.01,2013-05-18 07:35:00,
2013-05-18 03:40:00,59.3,58.2,29.92,North,0,0.0,0.0,96,0.00,,,0.00,VWS V14.01,2013-05-18 07:40:00,
2013-05-18 03:45:00,59.2,58.1,29.93,North,0,0.0,0.0,96,0.00,,,0.00,VWS V14.01,2013-05-18 07:45:00,
2013-05-18 03:50:00,59.2,58.1,29.93,North,0,0.0,0.0,96,0.00,,,0.00,VWS V14.01,2013-05-18 07:50:00,
2013-05-18 03:55:00,59.2,58.1,29.93,North,0,0.0,0.0,96,0.00,,,0.00,VWS V14.01,2013-05-18 07:55:00,
2013-05-18 04:00:00,59.2,58.1,29.93,North,0,0.0,0.0,96,0.00,,,0.00,VWS V14.01,2013-05-18 08:00:00,
2013-05-18 04:05:00,59.2,58.1,29.93,North,0,0.0,0.0,96,0.00,,,0.00,VWS V14.01,2013-05-18 08:05:00,
2013-05-18 04:10:00,59.2,58.1,29.93,North,0,0.0,0.0,96,0.00,,,0.00,VWS V14.01,2013-05-18 08:10:00,
2013-05-18 04:15:00,59.2,58.1,29.93,North,0,0.0,0.0,96,0.00,,,0.00,VWS V14.01,2013-05-18 08:15:00,
2013-05-18 04:20:00,59.0,57.9,29.93,North,0,0.0,0.0,96,0.00,,,0.00,VWS V14.01,2013-05-18 08:20:00,
2013-05-18 04:25:00,59.2,58.1,29.93,North,0,0.0,0.0,96,0.00,,,0.00,VWS V14.01,2013-05-18 08:25:00,
2013-05-18 04:30:00,59.2,58.1,29.93,North,0,0.0,0.0,96,0.00,,,0.00,VWS V14.01,2013-05-18 08:30:00,
2013-05-18 04:35:00,59.2,58.1,29.93,North,0,0.0,0.0,96,0.00,,,0.00,VWS V14.01,2013-05-18 08:35:00,
2013-05-18 04:40:00,59.2,58.1,29.93,North,0,0.0,0.0,96,0.00,,,0.00,VWS V14.01,2013-05-18 08:40:00,
2013-05-18 04:45:00,59.2,58.1,29.93,North,0,0.0,0.0,96,0.00,,,0.00,VWS V14.01,2013-05-18 08:45:00,
2013-05-18 04:50:00,59.2,58.1,29.93,North,0,0.0,0.0,96,0.00,,,0.00,VWS V14.01,2013-05-18 08:50:00,
2013-05-18 04:55:00,59.2,58.1,29.93,North,0,0.0,0.0,96,0.00,,,0.00,VWS V14.01,2013-05-18 08:55:00,
2013-05-18 05:00:00,59.3,58.2,29.93,North,0,0.0,0.0,96,0.00,,,0.00,VWS V14.01,2013-05-18 09:00:00,
2013-05-18 05:05:00,59.3,58.2,29.93,North,0,0.0,0.0,96,0.00,,,0.00,VWS V14.01,2013-05-18 09:05:00,
2013-05-18 05:10:00,59.3,58.2,29.93,North,0,0.0,0.0,96,0.00,,,0.00,VWS V14.01,2013-05-18 09:10:00,
2013-05-18 05:15:00,59.3,58.2,29.94,North,0,0.0,0.0,96,0.00,,,0.00,VWS V14.01,2013-05-18 09:15:00,
2013-05-18 05:20:00,59.3,58.2,29.94,North,0,0.0,0.0,96,0.00,,,0.00,VWS V14.01,2013-05-18 09:20:00,
2013-05-18 05:25:00,59.5,58.4,29.94,North,0,0.0,0.0,96,0.00,,,0.00,VWS V14.01,2013-05-18 09:25:00,
2013-05-18 05:30:00,59.3,58.2,29.94,North,0,0.0,0.0,96,0.00,,,0.00,VWS V14.01,2013-05-18 09:30:00,
2013-05-18 05:35:00,59.5,58.4,29.94,North,0,0.0,0.0,96,0.00,,,0.00,VWS V14.01,2013-05-18 09:35:00,
2013-05-18 05:40:00,59.5,58.4,29.94,North,0,0.0,0.0,96,0.00,,,0.00,VWS V14.01,2013-05-18 09:40:00,
2013-05-18 05:45:00,59.3,58.2,29.94,North,0,0.0,0.0,96,0.00,,,0.00,VWS V14.01,2013-05-18 09:45:00,
2013-05-18 05:50:00,59.2,58.1,29.94,North,0,0.0,0.0,96,0.00,,,0.00,VWS V14.01,2013-05-18 09:50:00,
2013-05-18 05:55:00,59.2,58.1,29.94,North,0,0.0,0.0,96,0.00,,,0.00,VWS V14.01,2013-05-18 09:55:00,
2013-05-18 06:00:00,59.2,58.1,29.94,North,0,0.0,0.0,96,0.00,,,0.00,VWS V14.01,2013-05-18 10:00:00,
2013-05-18 06:05:00,59.2,58.3,29.94,North,0,0.0,0.0,97,0.00,,,0.00,VWS V14.01,2013-05-18 10:05:00,
2013-05-18 06:10:00,59.2,58.3,29.94,North,0,0.0,0.0,97,0.00,,,0.00,VWS V14.01,2013-05-18 10:10:00,
2013-05-18 06:15:00,59.2,58.3,29.98,North,0,0.0,0.0,97,0.00,,,0.00,VWS V14.01,2013-05-18 10:15:00,
2013-05-18 06:20:00,59.2,58.3,29.98,North,0,0.0,0.0,97,0.00,,,0.00,VWS V14.01,2013-05-18 10:20:00,
2013-05-18 06:25:00,59.2,58.3,29.98,North,0,0.0,0.0,97,0.00,,,0.00,VWS V14.01,2013-05-18 10:25:00,
2013-05-18 06:30:00,59.2,58.3,29.98,North,0,0.0,0.0,97,0.00,,,0.00,VWS V14.01,2013-05-18 10:30:00,
2013-05-18 06:35:00,59.3,58.5,29.98,North,0,0.0,0.0,97,0.00,,,0.00,VWS V14.01,2013-05-18 10:35:00,
2013-05-18 06:40:00,59.3,58.5,29.98,North,0,0.0,0.0,97,0.00,,,0.00,VWS V14.01,2013-05-18 10:40:00,
2013-05-18 06:45:00,59.3,58.5,29.99,North,0,0.0,0.0,97,0.00,,,0.00,VWS V14.01,2013-05-18 10:45:00,
2013-05-18 06:50:00,59.5,58.7,29.99,North,0,0.0,0.0,97,0.00,,,0.00,VWS V14.01,2013-05-18 10:50:00,
2013-05-18 06:55:00,59.5,58.7,29.99,North,0,0.0,0.0,97,0.00,,,0.00,VWS V14.01,2013-05-18 10:55:00,
2013-05-18 07:00:00,59.3,58.5,29.99,North,0,0.0,0.0,97,0.00,,,0.00,VWS V14.01,2013-05-18 11:00:00,
2013-05-18 07:05:00,59.5,58.7,29.99,North,0,0.0,0.0,97,0.00,,,0.00,VWS V14.01,2013-05-18 11:05:00,
2013-05-18 07:10:00,59.6,58.8,29.99,North,0,0.0,0.0,97,0.00,,,0.00,VWS V14.01,2013-05-18 11:10:00,
2013-05-18 07:15:00,59.8,59.0,30.00,North,0,0.0,0.0,97,0.00,,,0.00,VWS V14.01,2013-05-18 11:15:00,
2013-05-18 07:20:00,59.9,59.0,30.00,North,0,0.0,0.0,97,0.00,,,0.00,VWS V14.01,2013-05-18 11:20:00,
2013-05-18 07:25:00,60.1,59.2,30.00,North,0,0.0,0.0,97,0.00,,,0.00,VWS V14.01,2013-05-18 11:25:00,
2013-05-18 07:30:00,60.2,59.3,30.00,North,0,0.0,0.0,97,0.00,,,0.00,VWS V14.01,2013-05-18 11:30:00,
2013-05-18 07:35:00,60.4,59.5,30.00,North,0,0.0,0.0,97,0.00,,,0.00,VWS V14.01,2013-05-18 11:35:00,
2013-05-18 07:40:00,60.4,59.5,30.00,North,0,0.0,0.0,97,0.00,,,0.00,VWS V14.01,2013-05-18 11:40:00,
2013-05-18 07:45:00,60.5,59.7,30.00,North,0,0.0,0.0,97,0.00,,,0.00,VWS V14.01,2013-05-18 11:45:00,
2013-05-18 07:50:00,60.5,59.7,30.00,North,0,0.0,0.0,97,0.00,,,0.00,VWS V14.01,2013-05-18 11:50:00,
2013-05-18 07:55:00,60.7,59.8,30.00,North,0,0.0,0.0,97,0.00,,,0.00,VWS V14.01,2013-05-18 11:55:00,
2013-05-18 08:00:00,60.9,60.0,30.01,North,0,0.0,0.0,97,0.00,,,0.00,VWS V14.01,2013-05-18 12:00:00,
2013-05-18 08:05:00,61.0,60.2,30.01,North,0,0.0,0.0,97,0.00,,,0.00,VWS V14.01,2013-05-18 12:05:00,
2013-05-18 08:10:00,61.0,60.2,30.01,North,0,0.0,0.0,97,0.00,,,0.00,VWS V14.01,2013-05-18 12:10:00,
2013-05-18 08:15:00,61.2,60.3,30.01,North,0,0.0,0.0,97,0.00,,,0.00,VWS V14.01,2013-05-18 12:15:00,
2013-05-18 08:20:00,61.2,60.3,30.01,North,0,0.0,0.0,97,0.00,,,0.00,VWS V14.01,2013-05-18 12:20:00,
2013-05-18 08:25:00,61.2,60.3,30.01,North,0,0.0,0.0,97,0.01,,,0.01,VWS V14.01,2013-05-18 12:25:00,
2013-05-18 08:30:00,61.3,60.4,30.01,North,0,0.0,0.0,97,0.01,,,0.01,VWS V14.01,2013-05-18 12:30:00,
2013-05-18 08:35:00,61.0,59.9,30.01,NNE,22,1.0,6.0,96,0.01,,,0.01,VWS V14.01,2013-05-18 12:35:00,
2013-05-18 08:40:00,61.0,59.9,30.01,NNE,22,0.0,2.0,96,0.01,,,0.01,VWS V14.01,2013-05-18 12:40:00,
2013-05-18 08:45:00,61.2,60.3,30.01,NNE,22,0.0,0.0,97,0.01,,,0.01,VWS V14.01,2013-05-18 12:45:00,
2013-05-18 08:50:00,61.2,60.0,30.01,NNE,22,0.0,1.0,96,0.01,,,0.01,VWS V14.01,2013-05-18 12:50:00,
2013-05-18 08:55:00,61.3,60.2,30.01,NNE,22,0.0,0.0,96,0.01,,,0.01,VWS V14.01,2013-05-18 12:55:00,
2013-05-18 09:00:00,61.6,60.7,30.01,NNE,22,0.0,0.0,97,0.02,,,0.02,VWS V14.01,2013-05-18 13:00:00,
2013-05-18 09:05:00,61.8,60.7,30.01,NNE,22,0.0,1.0,96,0.02,,,0.02,VWS V14.01,2013-05-18 13:05:00,
2013-05-18 09:10:00,61.6,60.5,30.01,NNE,22,0.0,2.0,96,0.02,,,0.02,VWS V14.01,2013-05-18 13:10:00,
2013-05-18 09:15:00,61.6,60.5,30.01,NNE,22,0.0,1.0,96,0.02,,,0.02,VWS V14.01,2013-05-18 13:15:00,
2013-05-18 09:20:00,61.8,60.7,30.01,NNE,22,0.0,2.0,96,0.02,,,0.02,VWS V14.01,2013-05-18 13:20:00,
2013-05-18 09:25:00,62.0,60.8,30.01,NNE,22,0.0,1.0,96,0.03,,,0.03,VWS V14.01,2013-05-18 13:25:00,
2013-05-18 09:30:00,61.8,60.7,30.01,NNE,22,0.0,1.0,96,0.02,,,0.03,VWS V14.01,2013-05-18 13:30:00,
2013-05-18 09:35:00,61.8,60.7,30.01,NNE,22,0.0,0.0,96,0.02,,,0.03,VWS V14.01,2013-05-18 13:35:00,
2013-05-18 09:40:00,61.8,60.7,30.01,West,270,0.0,1.0,96,0.02,,,0.03,VWS V14.01,2013-05-18 13:40:00,
2013-05-18 09:45:00,61.6,60.5,30.01,West,270,0.0,2.0,96,0.03,,,0.04,VWS V14.01,2013-05-18 13:45:00,
2013-05-18 09:50:00,61.8,60.7,30.01,West,270,0.0,1.0,96,0.03,,,0.04,VWS V14.01,2013-05-18 13:50:00,
2013-05-18 09:55:00,61.6,60.5,30.01,West,270,0.0,2.0,96,0.03,,,0.04,VWS V14.01,2013-05-18 13:55:00,
2013-05-18 10:00:00,61.6,60.5,30.01,West,270,0.0,1.0,96,0.04,,,0.05,VWS V14.01,2013-05-18 14:00:00,
2013-05-18 10:05:00,61.6,60.5,30.01,West,270,0.0,1.0,96,0.03,,,0.05,VWS V14.01,2013-05-18 14:05:00,
2013-05-18 10:10:00,61.6,60.5,30.01,West,270,0.0,2.0,96,0.04,,,0.06,VWS V14.01,2013-05-18 14:10:00,
2013-05-18 10:15:00,61.6,60.5,30.00,West,270,1.0,4.0,96,0.04,,,0.06,VWS V14.01,2013-05-18 14:15:00,
2013-05-18 10:20:00,62.0,61.1,30.00,West,270,0.0,0.0,97,0.04,,,0.06,VWS V14.01,2013-05-18 14:20:00,
2013-05-18 10:25:00,62.3,61.4,30.00,West,270,0.0,1.0,97,0.04,,,0.06,VWS V14.01,2013-05-18 14:25:00,
2013-05-18 10:30:00,62.4,61.5,30.00,West,270,0.0,2.0,97,0.03,,,0.06,VWS V14.01,2013-05-18 14:30:00,
2013-05-18 10:35:00,62.6,61.7,30.00,West,270,1.0,2.0,97,0.03,,,0.06,VWS V14.01,2013-05-18 14:35:00,
2013-05-18 10:40:00,62.9,62.0,30.00,WNW,292,1.0,4.0,97,0.03,,,0.06,VWS V14.01,2013-05-18 14:40:00,
2013-05-18 10:45:00,63.2,62.3,30.00,WNW,292,1.0,3.0,97,0.03,,,0.06,VWS V14.01,2013-05-18 14:45:00,
2013-05-18 10:50:00,63.1,61.9,30.00,WNW,292,1.0,4.0,96,0.02,,,0.06,VWS V14.01,2013-05-18 14:50:00,
2013-05-18 10:55:00,63.2,62.3,30.00,West,270,1.0,4.0,97,0.02,,,0.06,VWS V14.01,2013-05-18 14:55:00,
2013-05-18 11:00:00,63.5,62.6,30.00,WSW,248,1.0,4.0,97,0.02,,,0.06,VWS V14.01,2013-05-18 15:00:00,
2013-05-18 11:05:00,63.9,63.0,30.00,WNW,292,1.0,4.0,97,0.01,,,0.06,VWS V14.01,2013-05-18 15:05:00,
2013-05-18 11:10:00,64.0,63.1,30.00,WNW,292,1.0,5.0,97,0.01,,,0.06,VWS V14.01,2013-05-18 15:10:00,
2013-05-18 11:15:00,64.2,63.3,30.00,WNW,292,0.0,2.0,97,0.00,,,0.06,VWS V14.01,2013-05-18 15:15:00,
2013-05-18 11:20:00,64.5,63.6,30.00,WNW,292,0.0,1.0,97,0.00,,,0.06,VWS V14.01,2013-05-18 15:20:00,
2013-05-18 11:25:00,64.7,63.8,30.00,WNW,292,0.0,1.0,97,0.00,,,0.06,VWS V14.01,2013-05-18 15:25:00,
2013-05-18 11:30:00,64.8,63.6,30.00,WNW,292,0.0,2.0,96,0.00,,,0.06,VWS V14.01,2013-05-18 15:30:00,
2013-05-18 11:35:00,64.7,63.5,30.00,WNW,292,0.0,3.0,96,0.00,,,0.06,VWS V14.01,2013-05-18 15:35:00,
2013-05-18 11:40:00,65.0,63.8,30.00,WNW,292,0.0,2.0,96,0.00,,,0.06,VWS V14.01,2013-05-18 15:40:00,
2013-05-18 11:45:00,64.7,63.5,30.00,WNW,292,1.0,2.0,96,0.00,,,0.06,VWS V14.01,2013-05-18 15:45:00,
2013-05-18 11:50:00,64.8,63.6,30.00,WNW,292,0.0,3.0,96,0.00,,,0.06,VWS V14.01,2013-05-18 15:50:00,
2013-05-18 11:55:00,64.8,63.6,30.00,WNW,292,1.0,4.0,96,0.00,,,0.06,VWS V14.01,2013-05-18 15:55:00,
2013-05-18 12:00:00,65.0,63.8,29.99,WNW,292,0.0,2.0,96,0.00,,,0.06,VWS V14.01,2013-05-18 16:00:00,
2013-05-18 12:05:00,65.2,64.0,29.99,WNW,292,0.0,1.0,96,0.00,,,0.06,VWS V14.01,2013-05-18 16:05:00,
2013-05-18 12:10:00,65.3,64.1,29.99,WNW,292,0.0,1.0,96,0.00,,,0.06,VWS V14.01,2013-05-18 16:10:00,
2013-05-18 12:15:00,65.5,64.3,29.98,WNW,292,0.0,1.0,96,0.00,,,0.06,VWS V14.01,2013-05-18 16:15:00,
2013-05-18 12:20:00,65.5,64.3,29.98,WNW,292,0.0,1.0,96,0.00,,,0.06,VWS V14.01,2013-05-18 16:20:00,
2013-05-18 12:25:00,66.0,64.8,29.98,WNW,292,0.0,1.0,96,0.00,,,0.06,VWS V14.01,2013-05-18 16:25:00,
2013-05-18 12:30:00,66.3,65.1,29.98,WNW,292,0.0,1.0,96,0.00,,,0.06,VWS V14.01,2013-05-18 16:30:00,
2013-05-18 12:35:00,66.6,65.4,29.98,WNW,292,0.0,2.0,96,0.00,,,0.06,VWS V14.01,2013-05-18 16:35:00,
2013-05-18 12:40:00,66.8,65.6,29.98,WNW,292,0.0,2.0,96,0.00,,,0.06,VWS V14.01,2013-05-18 16:40:00,
2013-05-18 12:45:00,67.1,65.9,29.98,WNW,292,0.0,2.0,96,0.00,,,0.06,VWS V14.01,2013-05-18 16:45:00,
2013-05-18 12:50:00,67.3,66.1,29.98,WNW,292,0.0,1.0,96,0.00,,,0.06,VWS V14.01,2013-05-18 16:50:00,
2013-05-18 12:55:00,67.9,66.4,29.98,WNW,292,0.0,2.0,95,0.00,,,0.06,VWS V14.01,2013-05-18 16:55:00,
2013-05-18 13:00:00,68.6,67.1,29.97,WNW,292,0.0,1.0,95,0.00,,,0.06,VWS V14.01,2013-05-18 17:00:00,
2013-05-18 13:05:00,68.6,66.8,29.97,WNW,292,0.0,1.0,94,0.00,,,0.06,VWS V14.01,2013-05-18 17:05:00,
2013-05-18 13:10:00,68.4,66.6,29.97,WNW,292,0.0,1.0,94,0.00,,,0.06,VWS V14.01,2013-05-18 17:10:00,
2013-05-18 13:15:00,67.9,65.2,29.96,WNW,292,0.0,0.0,91,0.00,,,0.06,VWS V14.01,2013-05-18 17:15:00,
2013-05-18 13:20:00,68.1,65.7,29.96,WNW,292,0.0,2.0,92,0.00,,,0.06,VWS V14.01,2013-05-18 17:20:00,
2013-05-18 13:25:00,68.4,66.0,29.96,WNW,292,0.0,1.0,92,0.00,,,0.06,VWS V14.01,2013-05-18 17:25:00,
2013-05-18 13:30:00,68.9,66.5,29.96,WNW,292,0.0,0.0,92,0.00,,,0.06,VWS V14.01,2013-05-18 17:30:00,
2013-05-18 13:35:00,69.1,66.4,29.96,WNW,292,0.0,1.0,91,0.00,,,0.06,VWS V14.01,2013-05-18 17:35:00,
2013-05-18 13:40:00,69.3,66.2,29.96,WNW,292,0.0,3.0,90,0.00,,,0.06,VWS V14.01,2013-05-18 17:40:00,
2013-05-18 13:45:00,69.3,66.2,29.96,WNW,292,0.0,3.0,90,0.00,,,0.06,VWS V14.01,2013-05-18 17:45:00,
2013-05-18 13:50:00,69.4,65.7,29.96,WNW,292,0.0,2.0,88,0.00,,,0.06,VWS V14.01,2013-05-18 17:50:00,
2013-05-18 13:55:00,69.6,65.9,29.96,WNW,292,0.0,1.0,88,0.00,,,0.06,VWS V14.01,2013-05-18 17:55:00,
2013-05-18 14:00:00,69.6,65.2,29.96,WNW,292,0.0,2.0,86,0.00,,,0.06,VWS V14.01,2013-05-18 18:00:00,
2013-05-18 14:05:00,69.8,65.1,29.96,WNW,292,0.0,3.0,85,0.00,,,0.06,VWS V14.01,2013-05-18 18:05:00,
2013-05-18 14:10:00,69.8,65.4,29.96,WNW,292,0.0,1.0,86,0.00,,,0.06,VWS V14.01,2013-05-18 18:10:00,
2013-05-18 14:15:00,69.6,65.2,29.95,WNW,292,0.0,3.0,86,0.00,,,0.06,VWS V14.01,2013-05-18 18:15:00,
2013-05-18 14:20:00,69.6,65.2,29.95,WNW,292,0.0,2.0,86,0.00,,,0.06,VWS V14.01,2013-05-18 18:20:00,
2013-05-18 14:25:00,69.6,64.2,29.95,WNW,292,1.0,5.0,83,0.00,,,0.06,VWS V14.01,2013-05-18 18:25:00,
2013-05-18 14:30:00,69.8,64.1,29.95,West,270,1.0,3.0,82,0.00,,,0.06,VWS V14.01,2013-05-18 18:30:00,
2013-05-18 14:35:00,69.9,63.8,29.95,West,270,0.0,3.0,81,0.00,,,0.06,VWS V14.01,2013-05-18 18:35:00,
2013-05-18 14:40:00,69.8,64.1,29.95,West,270,0.0,1.0,82,0.00,,,0.06,VWS V14.01,2013-05-18 18:40:00,
2013-05-18 14:45:00,69.8,65.1,29.95,West,270,0.0,2.0,85,0.00,,,0.06,VWS V14.01,2013-05-18 18:45:00,
2013-05-18 14:50:00,69.4,64.4,29.95,West,270,0.0,0.0,84,0.00,,,0.06,VWS V14.01,2013-05-18 18:50:00,
2013-05-18 14:55:00,69.3,64.9,29.95,West,270,0.0,1.0,86,0.00,,,0.06,VWS V14.01,2013-05-18 18:55:00,
2013-05-18 15:00:00,68.6,64.6,29.95,West,270,0.0,0.0,87,0.00,,,0.06,VWS V14.01,2013-05-18 19:00:00,
2013-05-18 15:05:00,68.3,64.6,29.95,West,270,0.0,0.0,88,0.00,,,0.06,VWS V14.01,2013-05-18 19:05:00,
2013-05-18 15:10:00,67.9,64.5,29.95,West,270,0.0,0.0,89,0.01,,,0.07,VWS V14.01,2013-05-18 19:10:00,
2013-05-18 15:15:00,68.1,65.1,29.95,West,270,0.0,0.0,90,0.01,,,0.07,VWS V14.01,2013-05-18 19:15:00,
2013-05-18 15:20:00,68.3,65.3,29.95,West,270,0.0,0.0,90,0.01,,,0.07,VWS V14.01,2013-05-18 19:20:00,
2013-05-18 15:25:00,68.8,65.8,29.95,West,270,0.0,0.0,90,0.01,,,0.07,VWS V14.01,2013-05-18 19:25:00,
2013-05-18 15:30:00,69.4,66.3,29.94,West,270,0.0,0.0,90,0.01,,,0.07,VWS V14.01,2013-05-18 19:30:00,
2013-05-18 15:35:00,70.1,67.0,29.94,West,270,0.0,0.0,90,0.01,,,0.07,VWS V14.01,2013-05-18 19:35:00,
2013-05-18 15:40:00,70.4,66.3,29.94,West,270,0.0,2.0,87,0.01,,,0.07,VWS V14.01,2013-05-18 19:40:00,
2013-05-18 15:45:00,70.8,66.4,29.94,West,270,0.0,2.0,86,0.01,,,0.07,VWS V14.01,2013-05-18 19:45:00,
2013-05-18 15:50:00,71.1,66.7,29.94,West,270,1.0,3.0,86,0.01,,,0.07,VWS V14.01,2013-05-18 19:50:00,
2013-05-18 15:55:00,71.3,66.2,29.94,West,270,0.0,1.0,84,0.01,,,0.07,VWS V14.01,2013-05-18 19:55:00,
2013-05-18 16:00:00,70.9,65.1,29.93,NNE,22,0.0,4.0,82,0.01,,,0.07,VWS V14.01,2013-05-18 20:00:00,
2013-05-18 16:05:00,70.8,65.7,29.93,NNE,22,0.0,3.0,84,0.01,,,0.07,VWS V14.01,2013-05-18 20:05:00,
2013-05-18 16:10:00,70.8,64.7,29.93,NNE,22,1.0,5.0,81,0.01,,,0.07,VWS V14.01,2013-05-18 20:10:00,
2013-05-18 16:15:00,70.8,65.7,29.92,West,270,1.0,4.0,84,0.00,,,0.07,VWS V14.01,2013-05-18 20:15:00,
2013-05-18 16:20:00,70.4,64.7,29.92,WSW,248,1.0,5.0,82,0.00,,,0.07,VWS V14.01,2013-05-18 20:20:00,
2013-05-18 16:25:00,69.9,64.5,29.92,NNE,22,1.0,4.0,83,0.00,,,0.07,VWS V14.01,2013-05-18 20:25:00,
2013-05-18 16:30:00,69.4,64.7,29.93,ENE,68,1.0,5.0,85,0.02,,,0.09,VWS V14.01,2013-05-18 20:30:00,
2013-05-18 16:35:00,68.1,64.1,29.93,North,0,1.0,5.0,87,0.23,,,0.30,VWS V14.01,2013-05-18 20:35:00,
2013-05-18 16:40:00,66.9,63.9,29.93,NW,315,1.0,4.0,90,0.37,,,0.44,VWS V14.01,2013-05-18 20:40:00,
2013-05-18 16:45:00,66.0,63.0,29.95,West,270,0.0,4.0,90,0.45,,,0.52,VWS V14.01,2013-05-18 20:45:00,
2013-05-18 16:50:00,65.2,62.5,29.95,West,270,0.0,1.0,91,0.50,,,0.57,VWS V14.01,2013-05-18 20:50:00,
2013-05-18 16:55:00,64.8,62.4,29.95,West,270,0.0,0.0,92,0.52,,,0.59,VWS V14.01,2013-05-18 20:55:00,
2013-05-18 17:00:00,65.0,62.9,29.94,West,270,0.0,0.0,93,0.54,,,0.61,VWS V14.01,2013-05-18 21:00:00,
2013-05-18 17:05:00,65.0,62.9,29.94,West,270,0.0,0.0,93,0.56,,,0.63,VWS V14.01,2013-05-18 21:05:00,
2013-05-18 17:10:00,64.8,62.7,29.94,West,270,0.0,0.0,93,0.56,,,0.63,VWS V14.01,2013-05-18 21:10:00,
2013-05-18 17:15:00,65.2,63.4,29.94,West,270,0.0,0.0,94,0.56,,,0.63,VWS V14.01,2013-05-18 21:15:00,
2013-05-18 17:20:00,65.6,64.1,29.94,West,270,0.0,0.0,95,0.56,,,0.63,VWS V14.01,2013-05-18 21:20:00,
2013-05-18 17:25:00,65.6,63.8,29.94,ENE,68,0.0,1.0,94,0.56,,,0.63,VWS V14.01,2013-05-18 21:25:00,
2013-05-18 17:30:00,65.8,64.0,29.94,ENE,68,0.0,2.0,94,0.56,,,0.63,VWS V14.01,2013-05-18 21:30:00,
2013-05-18 17:35:00,66.0,64.2,29.94,ENE,68,0.0,0.0,94,0.54,,,0.63,VWS V14.01,2013-05-18 21:35:00,
2013-05-18 17:40:00,66.0,64.2,29.94,ENE,68,0.0,0.0,94,0.33,,,0.63,VWS V14.01,2013-05-18 21:40:00,
2013-05-18 17:45:00,66.1,64.3,29.94,ENE,68,0.0,0.0,94,0.19,,,0.63,VWS V14.01,2013-05-18 21:45:00,
2013-05-18 17:50:00,66.1,64.3,29.94,ENE,68,0.0,1.0,94,0.11,,,0.63,VWS V14.01,2013-05-18 21:50:00,
2013-05-18 17:55:00,66.3,64.5,29.94,ENE,68,0.0,0.0,94,0.06,,,0.63,VWS V14.01,2013-05-18 21:55:00,
2013-05-18 18:00:00,66.6,65.1,29.93,ENE,68,0.0,0.0,95,0.04,,,0.63,VWS V14.01,2013-05-18 22:00:00,
2013-05-18 18:05:00,66.6,65.1,29.93,ENE,68,0.0,0.0,95,0.02,,,0.63,VWS V14.01,2013-05-18 22:05:00,
2013-05-18 18:10:00,66.6,65.1,29.93,ENE,68,0.0,0.0,95,0.00,,,0.63,VWS V14.01,2013-05-18 22:10:00,
2013-05-18 18:15:00,66.4,64.6,29.93,ENE,68,0.0,0.0,94,0.00,,,0.63,VWS V14.01,2013-05-18 22:15:00,
2013-05-18 18:20:00,66.3,64.5,29.93,ENE,68,0.0,0.0,94,0.00,,,0.63,VWS V14.01,2013-05-18 22:20:00,
2013-05-18 18:25:00,66.4,64.9,29.93,ENE,68,0.0,0.0,95,0.00,,,0.63,VWS V14.01,2013-05-18 22:25:00,
2013-05-18 18:30:00,66.1,64.3,29.93,ENE,68,0.0,0.0,94,0.00,,,0.63,VWS V14.01,2013-05-18 22:30:00,
2013-05-18 18:35:00,65.8,64.0,29.93,ENE,68,0.0,0.0,94,0.00,,,0.63,VWS V14.01,2013-05-18 22:35:00,
2013-05-18 18:40:00,65.5,63.7,29.93,ENE,68,0.0,0.0,94,0.00,,,0.63,VWS V14.01,2013-05-18 22:40:00,
2013-05-18 18:45:00,65.3,63.5,29.94,ENE,68,0.0,0.0,94,0.00,,,0.63,VWS V14.01,2013-05-18 22:45:00,
2013-05-18 18:50:00,65.2,63.4,29.94,ENE,68,0.0,0.0,94,0.00,,,0.63,VWS V14.01,2013-05-18 22:50:00,
2013-05-18 18:55:00,65.3,63.8,29.94,ENE,68,0.0,0.0,95,0.00,,,0.63,VWS V14.01,2013-05-18 22:55:00,
2013-05-18 19:00:00,65.5,64.0,29.95,ESE,112,1.0,2.0,95,0.07,,,0.70,VWS V14.01,2013-05-18 23:00:00,
2013-05-18 19:05:00,65.2,63.7,29.95,West,270,0.0,3.0,95,0.15,,,0.78,VWS V14.01,2013-05-18 23:05:00,
2013-05-18 19:10:00,65.0,63.5,29.95,West,270,0.0,0.0,95,0.17,,,0.80,VWS V14.01,2013-05-18 23:10:00,
2013-05-18 19:15:00,64.8,63.3,29.95,West,270,0.0,0.0,95,0.18,,,0.81,VWS V14.01,2013-05-18 23:15:00,
2013-05-18 19:20:00,64.7,63.2,29.95,West,270,0.0,2.0,95,0.19,,,0.82,VWS V14.01,2013-05-18 23:20:00,
2013-05-18 19:25:00,64.3,62.8,29.95,West,270,0.0,0.0,95,0.20,,,0.83,VWS V14.01,2013-05-18 23:25:00,
2013-05-18 19:30:00,64.2,62.7,29.95,West,270,0.0,1.0,95,0.22,,,0.85,VWS V14.01,2013-05-18 23:30:00,
2013-05-18 19:35:00,64.2,62.7,29.95,West,270,0.0,0.0,95,0.22,,,0.85,VWS V14.01,2013-05-18 23:35:00,
2013-05-18 19:40:00,64.2,62.7,29.95,West,270,0.0,0.0,95,0.24,,,0.87,VWS V14.01,2013-05-18 23:40:00,
2013-05-18 19:45:00,64.2,62.7,29.95,WSW,248,0.0,1.0,95,0.24,,,0.87,VWS V14.01,2013-05-18 23:45:00,
2013-05-18 19:50:00,64.2,62.7,29.95,WSW,248,0.0,0.0,95,0.25,,,0.88,VWS V14.01,2013-05-18 23:50:00,
2013-05-18 19:55:00,64.0,62.5,29.95,WSW,248,0.0,1.0,95,0.26,,,0.89,VWS V14.01,2013-05-18 23:55:00,
2013-05-18 20:00:00,64.0,62.5,29.95,WSW,248,0.0,0.0,95,0.26,,,0.89,VWS V14.01,2013-05-19 00:00:00,
2013-05-18 20:05:00,64.0,62.5,29.95,WSW,248,0.0,3.0,95,0.19,,,0.89,VWS V14.01,2013-05-19 00:05:00,
2013-05-18 20:10:00,63.9,62.4,29.95,West,270,1.0,5.0,95,0.11,,,0.89,VWS V14.01,2013-05-19 00:10:00,
2013-05-18 20:15:00,63.9,62.4,29.95,West,270,0.0,3.0,95,0.09,,,0.89,VWS V14.01,2013-05-19 00:15:00,
2013-05-18 20:20:00,63.9,62.7,29.95,West,270,0.0,0.0,96,0.09,,,0.90,VWS V14.01,2013-05-19 00:20:00,
2013-05-18 20:25:00,63.9,62.7,29.95,West,270,0.0,0.0,96,0.08,,,0.90,VWS V14.01,2013-05-19 00:25:00,
2013-05-18 20:30:00,63.9,62.7,29.96,West,270,0.0,0.0,96,0.07,,,0.90,VWS V14.01,2013-05-19 00:30:00,
2013-05-18 20:35:00,63.9,62.7,29.96,West,270,0.0,0.0,96,0.06,,,0.91,VWS V14.01,2013-05-19 00:35:00,
2013-05-18 20:40:00,63.9,62.7,29.96,West,270,0.0,0.0,96,0.06,,,0.91,VWS V14.01,2013-05-19 00:40:00,
2013-05-18 20:45:00,63.9,62.7,29.96,West,270,0.0,0.0,96,0.04,,,0.91,VWS V14.01,2013-05-19 00:45:00,
2013-05-18 20:50:00,63.9,62.7,29.96,West,270,0.0,0.0,96,0.04,,,0.91,VWS V14.01,2013-05-19 00:50:00,
2013-05-18 20:55:00,63.9,62.7,29.96,West,270,0.0,0.0,96,0.03,,,0.91,VWS V14.01,2013-05-19 00:55:00,
2013-05-18 21:00:00,63.9,62.7,29.96,West,270,0.0,0.0,96,0.03,,,0.92,VWS V14.01,2013-05-19 01:00:00,
2013-05-18 21:05:00,63.9,62.7,29.96,West,270,0.0,0.0,96,0.04,,,0.93,VWS V14.01,2013-05-19 01:05:00,
2013-05-18 21:10:00,63.9,62.7,29.96,West,270,0.0,0.0,96,0.04,,,0.93,VWS V14.01,2013-05-19 01:10:00,
2013-05-18 21:15:00,63.7,62.5,29.96,West,270,0.0,0.0,96,0.06,,,0.95,VWS V14.01,2013-05-19 01:15:00,
2013-05-18 21:20:00,63.7,62.5,29.96,West,270,0.0,0.0,96,0.07,,,0.96,VWS V14.01,2013-05-19 01:20:00,
2013-05-18 21:25:00,63.7,62.5,29.96,West,270,0.0,0.0,96,0.06,,,0.96,VWS V14.01,2013-05-19 01:25:00,
2013-05-18 21:30:00,63.7,62.5,29.97,West,270,0.0,0.0,96,0.06,,,0.96,VWS V14.01,2013-05-19 01:30:00,
2013-05-18 21:35:00,63.5,62.3,29.97,West,270,0.0,0.0,96,0.06,,,0.96,VWS V14.01,2013-05-19 01:35:00,
2013-05-18 21:40:00,63.5,62.3,29.97,West,270,0.0,0.0,96,0.06,,,0.97,VWS V14.01,2013-05-19 01:40:00,
2013-05-18 21:45:00,63.5,62.3,29.97,West,270,0.0,0.0,96,0.06,,,0.97,VWS V14.01,2013-05-19 01:45:00,
2013-05-18 21:50:00,63.5,62.3,29.97,West,270,0.0,0.0,96,0.06,,,0.97,VWS V14.01,2013-05-19 01:50:00,
2013-05-18 21:55:00,63.5,62.3,29.97,West,270,0.0,0.0,96,0.06,,,0.97,VWS V14.01,2013-05-19 01:55:00,
2013-05-18 22:00:00,63.5,62.3,29.96,West,270,0.0,0.0,96,0.06,,,0.97,VWS V14.01,2013-05-19 02:00:00,
2013-05-18 22:05:00,63.5,62.3,29.96,West,270,0.0,0.0,96,0.05,,,0.97,VWS V14.01,2013-05-19 02:05:00,
2013-05-18 22:10:00,63.4,62.2,29.96,West,270,0.0,0.0,96,0.04,,,0.97,VWS V14.01,2013-05-19 02:10:00,
2013-05-18 22:15:00,63.5,62.3,29.97,West,270,0.0,0.0,96,0.04,,,0.97,VWS V14.01,2013-05-19 02:15:00,
2013-05-18 22:20:00,63.5,62.3,29.97,West,270,0.0,0.0,96,0.02,,,0.97,VWS V14.01,2013-05-19 02:20:00,
2013-05-18 22:25:00,63.4,62.2,29.97,West,270,0.0,1.0,96,0.01,,,0.97,VWS V14.01,2013-05-19 02:25:00,
2013-05-18 22:30:00,63.4,62.2,29.97,West,270,0.0,1.0,96,0.01,,,0.97,VWS V14.01,2013-05-19 02:30:00,
2013-05-18 22:35:00,63.4,62.2,29.97,West,270,0.0,3.0,96,0.01,,,0.97,VWS V14.01,2013-05-19 02:35:00,
2013-05-18 22:40:00,63.4,62.2,29.97,West,270,0.0,3.0,96,0.01,,,0.97,VWS V14.01,2013-05-19 02:40:00,
2013-05-18 22:45:00,63.4,62.2,29.96,West,270,0.0,1.0,96,0.00,,,0.97,VWS V14.01,2013-05-19 02:45:00,
2013-05-18 22:50:00,63.5,62.3,29.96,West,270,0.0,0.0,96,0.00,,,0.97,VWS V14.01,2013-05-19 02:50:00,
2013-05-18 22:55:00,63.5,62.3,29.96,West,270,0.0,2.0,96,0.00,,,0.97,VWS V14.01,2013-05-19 02:55:00,
2013-05-18 23:00:00,63.5,62.3,29.96,West,270,0.0,3.0,96,0.00,,,0.97,VWS V14.01,2013-05-19 03:00:00,
2013-05-18 23:05:00,63.4,62.2,29.96,West,270,0.0,1.0,96,0.00,,,0.97,VWS V14.01,2013-05-19 03:05:00,
2013-05-18 23:10:00,63.4,62.2,29.96,West,270,0.0,0.0,96,0.00,,,0.97,VWS V14.01,2013-05-19 03:10:00,
2013-05-18 23:15:00,63.4,62.2,29.95,NNE,22,0.0,3.0,96,0.00,,,0.97,VWS V14.01,2013-05-19 03:15:00,
2013-05-18 23:20:00,63.4,62.2,29.95,NNE,22,0.0,1.0,96,0.00,,,0.97,VWS V14.01,2013-05-19 03:20:00,
2013-05-18 23:25:00,63.4,62.2,29.95,NNE,22,0.0,0.0,96,0.00,,,0.97,VWS V14.01,2013-05-19 03:25:00,
2013-05-18 23:30:00,63.4,62.2,29.95,NNE,22,0.0,0.0,96,0.00,,,0.97,VWS V14.01,2013-05-19 03:30:00,
2013-05-18 23:35:00,63.4,62.2,29.95,NNE,22,0.0,0.0,96,0.00,,,0.97,VWS V14.01,2013-05-19 03:35:00,
2013-05-18 23:40:00,63.5,62.3,29.95,NNE,22,0.0,0.0,96,0.00,,,0.97,VWS V14.01,2013-05-19 03:40:00,
2013-05-18 23:45:00,63.5,62.3,29.95,NNE,22,0.0,0.0,96,0.00,,,0.97,VWS V14.01,2013-05-19 03:45:00,
2013-05-18 23:50:00,63.5,62.3,29.95,NNE,22,0.0,0.0,96,0.00,,,0.97,VWS V14.01,2013-05-19 03:50:00,
2013-05-18 23:55:00,63.4,62.2,29.95,NNE,22,0.0,0.0,96,0.00,,,0.97,VWS V14.01,2013-05-19 03:55:00,